Nome, AK

5:33 PM AKST on February 13, 2016 (GMT -0900)
Nome

Weather History for PAOM - October, 2013

Change the Weather History Date:

Thursday, October 3, 2013

  Actual Average Record
Temperature  
Mean Temperature 30 °F 35 °F  
Max Temperature 36 °F 41 °F 52 °F (1954)
Min Temperature 24 °F 29 °F 14 °F (1919)
Degree Days  
Heating Degree Days 35 30  
Month to date heating degree days 109 89  
Since 1 July heating degree days 1629 1619  
Cooling Degree Days 0    
Month to date cooling degree days 0  
Year to date cooling degree days 7  
Moisture  
Dew Point 23 °F    
Average Humidity 0    
Maximum Humidity 0    
Minimum Humidity 0    
Precipitation  
Precipitation 0.00 in 0.07 in 0.86 in (1916)
Month to date precipitation 0.00 0.20  
Year to date precipitation 15.09 13.10  
Snow  
Snow 0.00 in 0.10 in 2.00 in (1919)
Month to date snowfall 0.0 0.2  
Since 1 July snowfall 1.1 0.8  
Since 1 September snowfall 1.1 0.8  
Snow Depth 0.00 in    
Sea Level Pressure  
Sea Level Pressure 29.91 in    
Wind  
Wind Speed 6 mph (NNW)    
Max Wind Speed 10 mph    
Max Gust Speed 12 mph    
Visibility 10 miles    
Events      
T = Trace of Precipitation, MM = Missing Value Source: NWS Daily Summary

Daily Weather History Graph

Daily Weather History Graph

Search for Another Location

Airport or City:

Trip Planner

Search our weather history database for the weather conditions in past years. The results will help you decide how hot, cold, wet, or windy it might be!

Date:

Astronomy

Oct. 03, 2013 Rise Set
Actual Time 9:18 AM AKDT 8:21 PM AKDT
Civil Twilight 8:30 AM AKDT 9:09 PM AKDT
Nautical Twilight 7:33 AM AKDT 10:05 PM AKDT
Astronomical Twilight 6:32 AM AKDT 11:06 PM AKDT
Moon 7:51 AM AKDT (10/3) 7:39 PM AKDT (10/3)
Length of Visible Light 12h 39m
Length of Day
11h 02m
Waning Crescent, 2% of the Moon is Illuminated
Oct 3
Waning Crescent
Oct 4
New
Oct 11
First Quarter
Oct 18
Full
Oct 26
Last Quarter

Hourly Weather History & Observations

Time (AKDT) Temp. Windchill Dew Point Humidity Pressure Visibility Wind Dir Wind Speed Gust Speed Precip Events Conditions
12:53 AM 25.0 °F 18.1 °F 19.9 °F 81% 29.95 in 10.0 mi North 5.8 mph - N/A   Scattered Clouds
1:53 AM 26.1 °F 17.6 °F 21.0 °F 81% 29.95 in 10.0 mi NNW 8.1 mph - N/A   Scattered Clouds
2:53 AM 27.0 °F 17.3 °F 21.0 °F 78% 29.95 in 10.0 mi North 10.4 mph - N/A   Scattered Clouds
3:53 AM 26.1 °F 16.8 °F 19.9 °F 78% 29.94 in 10.0 mi North 9.2 mph - N/A   Scattered Clouds
4:53 AM 25.0 °F 16.3 °F 19.0 °F 78% 29.94 in 10.0 mi NNW 8.1 mph - N/A   Scattered Clouds
5:53 AM 24.1 °F - 19.0 °F 81% 29.94 in 10.0 mi Calm Calm - N/A   Mostly Cloudy
6:53 AM 27.0 °F 20.5 °F 21.0 °F 78% 29.93 in 10.0 mi NNW 5.8 mph - N/A   Mostly Cloudy
7:53 AM 28.9 °F 22.8 °F 21.9 °F 75% 29.93 in 10.0 mi North 5.8 mph - N/A   Mostly Cloudy
8:53 AM 30.9 °F - 23.0 °F 72% 29.93 in 10.0 mi Calm Calm - N/A   Overcast
9:53 AM 30.9 °F 25.2 °F 23.0 °F 72% 29.92 in 10.0 mi NNW 5.8 mph - N/A   Overcast
10:53 AM 32.0 °F 27.5 °F 24.1 °F 73% 29.92 in 10.0 mi NNW 4.6 mph - N/A   Overcast
11:53 AM 33.1 °F 26.9 °F 24.1 °F 70% 29.92 in 10.0 mi NNW 6.9 mph - N/A   Overcast
12:53 PM 34.0 °F 29.8 °F 25.0 °F 70% 29.91 in 10.0 mi NNW 4.6 mph - N/A   Overcast
1:53 PM 35.1 °F 30.1 °F 25.0 °F 67% 29.91 in 10.0 mi WNW 5.8 mph - N/A   Overcast
2:53 PM 36.0 °F - 24.1 °F 62% 29.91 in 10.0 mi Calm Calm - N/A   Overcast
3:53 PM 36.0 °F 33.3 °F 24.1 °F 62% 29.88 in 10.0 mi North 3.5 mph - N/A   Overcast
4:53 PM 36.0 °F 31.1 °F 24.1 °F 62% 29.87 in 10.0 mi North 5.8 mph - N/A   Overcast
5:53 PM 36.0 °F 30.3 °F 24.1 °F 62% 29.86 in 10.0 mi North 6.9 mph - N/A   Overcast
6:53 PM 36.0 °F 30.3 °F 24.1 °F 62% 29.86 in 10.0 mi North 6.9 mph - N/A   Overcast
8:53 PM 33.1 °F 26.9 °F 25.0 °F 72% 29.87 in 10.0 mi NNW 6.9 mph - N/A   Overcast
9:53 PM 30.9 °F 25.2 °F 24.1 °F 76% 29.87 in 10.0 mi North 5.8 mph - N/A   Overcast
10:53 PM 30.0 °F 23.2 °F 23.0 °F 75% 29.88 in 10.0 mi North 6.9 mph - N/A   Mostly Cloudy
11:53 PM 28.9 °F 21.9 °F 23.0 °F 78% 29.88 in 10.0 mi NNW 6.9 mph - N/A   Scattered Clouds